Regional Weather Roundup
Issued by NWS State College, PA

Home | Current Version | Previous Version | Graphics & Text | Print | Product List | Glossary On
Versions: 1 2 3 4 5 6 7 8 9 10 11 12 13 14 15 16 17 18 19 20 21 22 23 24 25 26 27 28 29 30 31 32 33 34 35 36 37 38 39 40 41 42 43 44 45 46 47 48 49 50
000
ASUS41 KCTP 231510
RWRCTP

REGIONAL WEATHER ROUNDUP
NATIONAL WEATHER SERVICE STATE COLLEGE PA
1100 AM EDT TUE MAY 23 2017

Note: "fair" indicates few or no clouds below 12,000 feet with no
significant weather and/or obstructions to visibility.

* = STATION THAT DOES NOT REPORT PRECIPITATION /E.G. RAIN...SNOW...ETC/
    THUNDER OR FOG.

PAZ002>004-007>009-013>016-020>023-029>032-231600-
WESTERN PENNSYLVANIA

CITY           SKY/WX    TMP DP  RH WIND       PRES   REMARKS
ERIE           MOSUNNY   68  51  54 S6        29.91F
MEADVILLE      SUNNY     64  48  56 VRB3      29.92F
FRANKLIN*      SUNNY     63  46  55 E6        29.94F
NEW CASTLE     FAIR      65  51  60 E5        29.93F
BEAVER COUNTY  SUNNY     64  46  52 E3        29.92
BUTLER*        PTSUNNY   63  48  59 E9        29.92F
PITTSBURGH INT PTSUNNY   65  48  54 SE12      29.90F
PITTSBURGH     MOSUNNY   64  45  49 E13       29.91F
INDIANA*       NOT AVBL
LATROBE        PTSUNNY   63  52  67 NE9       29.94F
WASHINGTON CO* MOSUNNY   63  46  55 E12G17    29.92F
$$

PAZ004>006-010>012-017>019-024>028-033>037-041-042-045-046-049>053-231600-
CENTRAL PENNSYLVANIA

CITY           SKY/WX    TMP DP  RH WIND       PRES   REMARKS
BRADFORD       NOT AVBL
DUBOIS         MOSUNNY   61  47  59 E5        29.93F
CLEARFIELD     MOSUNNY   59  48  67 E5        29.96F
JOHNSTOWN      CLOUDY    57  44  62 E7        29.95S
ALTOONA        CLOUDY    61  44  53 E6        29.97F
STATE COLLEGE  SUNNY     59  46  63 CALM      29.97F
WILLIAMSPORT   PTSUNNY   59  49  69 CALM      29.96F
SELINSGROVE    CLOUDY    63  52  67 CALM      29.97F
FT INDIANTOWN  PTSUNNY   62  51  66 E5        29.96F
CAPITAL CITY   PTSUNNY   63  50  62 E3        29.96F
HARRISBURG     CLOUDY    65  51  60 E3        29.96F
YORK           MOSUNNY   63  50  62 NE8       29.96F
$$

PAZ038>040-043-044-047-048-054-055-060>062-067>071-231600-
EASTERN PENNSYLVANIA

CITY           SKY/WX    TMP DP  RH WIND       PRES   REMARKS
SCRANTON       CLOUDY    61  47  59 CALM      29.97S
MOUNT POCONO   CLOUDY    58  42  55 VRB5      29.97S
ALLENTOWN      CLOUDY    62  48  60 CALM      29.98S
QUAKERTOWN*    CLOUDY    61  48  63 N5        29.99S
READING        CLOUDY    63  53  70 CALM      29.95F
LANCASTER      CLOUDY    64  53  67 E6        29.96F
COATESVILLE    CLOUDY    61  48  63 E10G22    29.97F
POTTSTOWN      CLOUDY    61  50  67 NE6       29.98F
BLUE BELL      CLOUDY    61  54  77 E3        29.99R
DOYLESTOWN     CLOUDY    63  54  72 VRB3      29.97R
WILLOW GROVE   NOT AVBL
NORTH PHILA    CLOUDY    64  57  78 NE6       29.98F
PHILADELPHIA   CLOUDY    64  55  72 NE9       29.96S
$$



USA.gov is the U.S. government's official web portal to all federal, state and local government web resources and services.